Voltar ao catálogo

RISAT-2BR1

AtivoCiênciaVLEO
NORAD 44857·PAYLOAD·🇮🇳 India

Lançado Dec 11, 2019 de Satish Dhawan Space Centre

Loading…

Próximas Passagens (próximas 24 horas)

TLE

AtualizadoSource: Space-Track

Época: Sep 14, 2026, 14:32 UTC

1 44857U 19089F   26257.60620828  .00001974  00000-0  15822-3 0  9991
2 44857  36.9611 301.2691 0012251 192.1085 167.9363 15.00862282370644

Acompanhe RISAT-2BR1 em tempo real com AllMySat

Download on the App Store